EHI
1 0 0 0 0 0 0 0 0 0 0 0 0 0 0 0 0 0 0 0 0 0 0 0 0 0 0 0 0 0 0 0 0 0 0 0 0 0
1 0 0 0 0 0 0 0 0 0 0 0 0 0 0 0 0 0 0 0 0 0 0 0 0 0 0 0 0 0 0 0 0 0 0 0 0 0
1 0 0 0 0 0 0 0 0 0 0 0 0 0 0 0 0 0 0 0 0 0 0 0 0 0 0 0 0 0 0 0 0 0 0 0 0 0
0 0 0 0 0 0 0 0 0 0 0 0 0 0 0 0 0 0 0 0 0 0 0 0 0 0 0 0 0 0 0 0 0 0 0 0 0 0
0 0 0 0 0 0 0 0 0 0 0 0 0 0 0 0 0 0 0 0 0 0 0 0 0 0 0 0 0 0 0 0 0 0 0 0 0 0
0 0 0 0 0 0 0 0 0 0 0 0 0 0 0 0 0 0 0 0 0 0 0 0 0 0 0 0 0 0 0 0 0 0 0 0 0 0
0 0 0 0 0 0 0 0 0 0 0 0 0 0 0 0 0 0 0 0 0 0 0 0 0 0 0 0 0 0 0 0 0 0 0 0 0 0
0 0 0 0 0 0 0 0 0 0 0 0 0 0 0 0 0 0 0 0 0 0 0 0 0 0 0 0 0 0 0 0 0 0 0 0 0 0
0 0 0 0 0 0 0 0 0 0 0 0 0 0 0 0 0 0 0 0 0 0 0 0 0 0 0 0 0 0 0 0 0 0 0 0 0 0
0 0 0 0 0 0 0 0 0 0 0 0 0 0 0 0 0 0 0 0 0 0 0 0 0 0 0 0 0 0 0 0 0 0 0 0 0 0
0 0 0 0 0 0 0 0 0 0 0 0 0 0 0 0 0 0 0 0 0 0 0 0 0 0 0 0 0 0 0 0 0 0 0 0 0 0
0 0 0 0 0 0 0 0 0 0 0 0 0 0 0 0 0 0 0 0 0 0 0 0 0 0 0 0 0 0 0 0 0 0 0 0 0 0
0 0 0 0 0 0 0 0 0 0 0 0 0 0 0 0 0 0 0 0 0 0 0 0 0 0 0 0 0 0 0 0 0 0 0 0 0 0
0 0 0 0 0 0 0 0 0 0 0 0 0 0 0 0 0 0 0 0 0 0 0 0 0 0 0 0 0 0 0 0 0 0 0 0 0 0
0 0 0 0 0 0 0 0 0 0 0 0 0 0 0 0 0 0 0 0 0 0 0 0 0 0 0 0 0 0 0 0 0 0 0 0 0 0
0 0 0 0 0 0 0 0 0 0 0 0 0 0 0 0 0 0 0 0 0 0 0 0 0 0 0 0 0 0 0 0 0 0 0 0 0 0
0 0 0 0 0 0 0 0 0 0 0 0 0 0 0 0 0 0 0 0 0 0 0 0 0 0 0 0 0 0 0 0 0 0 0 0 0 0
0 0 0 0 0 0 0 0 0 0 0 0 0 0 0 0 0 0 0 0 0 0 0 0 0 0 0 0 0 0 0 0 0 0 0 0 0 0
0 0 0 0 0 0 0 0 0 0 0 0 0 0 0 0 0 0 0 0 0 0 0 0 0 0 0 0 0 0 0 0 0 0 0 0 0 0
0 0 0 0 0 0 0 0 0 0 0 0 0 0 0 0 0 0 0 0 0 0 0 0 0 0 0 0 0 0 0 0 0 0 0 0 0 0
0 0 0 0 0 0 0 0 0 0 0 0 0 0 0 0 0 0 0 0 0 0 0 0 0 0 0 0 0 0 0 0 0 0 0 0 0 0
0 0 0 0 0 0 0 0 0 0 0 0 0 0 0 0 0 0 0 0 0 0 0 0 0 0 0 0 0 0 0 0 0 0 0 0 0 0
0 0 0 0 0 0 0 0 0 0 0 0 0 0 0 0 0 0 0 0 0 0 0 0 0 0 0 0 0 0 0 0 0 0 0 0 0 0
Wind_Speed
7 7 5 3 3 3 3 5 7 6 6 3 1 1 3 3 8 4 2 6 8 9 11 12 13 14 14 15 16 17 17 18 18 18 18 19 19 19
3 4 3 2 2 2 3 3 3 5 4 4 2 2 3 4 6 2 2 6 10 12 13 14 14 15 15 16 17 18 18 18 18 19 19 19 20 20
2 3 3 4 3 3 3 3 2 3 4 3 2 2 3 4 3 2 3 5 6 13 15 15 15 16 16 17 18 18 19 19 19 19 20 20 20 20
4 5 5 5 5 4 4 4 3 3 4 4 3 3 4 4 3 4 5 6 5 11 15 16 16 16 17 17 18 18 18 18 19 19 20 20 21 21
5 6 6 7 6 4 5 4 3 3 3 4 3 2 2 3 3 4 6 5 6 9 12 14 15 16 17 17 18 18 18 19 19 20 20 21 21 22
7 7 6 6 6 6 5 5 4 4 4 4 3 2 2 3 3 3 3 3 4 5 8 10 13 16 16 17 18 18 19 19 19 20 20 20 21 22
8 8 7 7 8 5 4 4 4 3 3 2 2 2 2 2 3 3 3 2 3 4 3 4 5 5 7 14 17 19 19 19 19 19 20 20 21 22
8 8 7 7 7 8 8 6 4 2 2 1 1 2 2 2 2 1 1 1 3 2 2 5 5 6 6 6 15 20 19 19 19 20 20 21 21 22
7 6 5 6 7 4 4 4 1 0 1 1 1 1 1 1 1 1 2 3 4 4 4 7 5 7 7 10 18 19 19 19 19 20 20 20 20 21
6 5 5 4 4 3 2 2 1 1 2 1 1 2 1 2 2 3 3 4 5 4 3 6 5 6 8 6 16 20 19 18 18 18 19 19 20 21
4 4 4 3 3 2 2 1 2 3 3 4 5 6 9 10 7 2 2 2 4 4 3 3 4 4 5 6 9 14 14 15 18 20 20 20 20 20
2 2 3 3 3 3 2 2 2 2 3 4 5 6 5 7 10 4 4 3 3 4 2 2 3 4 6 4 3 4 7 14 19 20 21 20 20 12
1 1 1 2 4 6 5 2 4 4 2 3 4 4 4 3 4 3 3 4 4 6 3 1 3 2 4 7 5 4 5 6 7 10 16 21 22 16
2 1 1 4 6 7 5 6 8 7 2 3 3 3 3 3 3 3 3 4 5 7 6 4 5 6 7 10 10 6 4 6 7 9 8 14 15 18
1 4 5 6 7 5 7 8 6 3 3 3 3 3 3 3 3 3 4 6 7 8 8 9 9 9 9 10 10 10 10 8 7 6 5 5 7 8
2 4 7 8 6 7 6 4 2 3 3 3 3 3 3 3 3 3 4 4 6 7 6 8 9 11 11 12 12 13 9 8 7 7 9 10 9 8
4 2 3 3 2 3 2 3 3 3 3 3 3 4 4 4 4 4 4 4 6 9 8 5 6 8 11 11 12 13 12 12 11 10 10 12 10 8
5 3 3 3 3 3 3 3 3 3 3 3 3 4 5 6 7 6 6 6 8 9 9 8 6 7 7 9 15 15 12 11 10 9 9 12 13 9
3 3 3 3 3 3 3 3 3 4 3 3 4 5 6 6 7 7 7 7 8 9 9 7 7 8 11 12 8 12 10 9 9 10 10 11 14 12
2 3 3 3 3 3 4 4 4 4 4 5 5 6 6 7 7 8 7 8 9 9 10 8 7 8 10 12 12 10 12 12 11 12 12 11 12 16
3 3 3 4 4 4 4 4 5 5 6 6 6 7 6 7 8 8 8 13 12 10 11 10 9 14 10 9 12 12 9 13 16 13 12 12 14 12
4 4 4 4 4 4 4 5 5 6 6 6 7 7 7 7 9 10 9 10 9 10 12 11 10 9 9 12 14 16 16 11 13 21 23 21 14 11
4 4 4 5 5 5 5 6 7 7 7 7 7 7 7 8 8 9 10 10 10 11 12 12 10 9 10 12 14 14 17 16 11 11 11 17 23 27
Wind_Direction
220 215 209 194 183 172 158 163 166 179 203 188 174 148 127 126 159 151 167 219 244 262 273 281 285 286 287 288 288 288 287 286 284 282 280 279 278 277
205 200 192 160 149 147 155 154 163 168 175 166 173 148 144 158 168 153 212 251 262 269 275 277 279 280 283 284 285 285 284 283 282 281 280 279 278 278
137 149 138 122 123 118 122 135 138 140 146 139 130 133 156 170 177 201 236 247 257 266 273 276 279 282 284 284 284 284 283 282 282 281 280 279 279 279
113 113 114 112 109 108 112 114 116 118 136 150 155 160 178 184 192 222 240 245 244 262 272 277 280 283 284 284 283 282 281 280 280 279 279 279 279 279
97 110 115 117 112 109 108 109 104 95 103 134 140 141 160 183 200 227 239 246 252 264 275 282 286 288 286 285 285 283 282 281 279 278 278 278 278 278
82 92 100 110 117 117 111 109 104 97 99 113 122 140 167 184 195 221 243 240 255 268 278 283 287 291 291 291 290 288 285 281 279 277 276 275 275 275
76 77 84 101 115 112 115 114 112 112 117 126 140 154 178 189 209 211 231 260 274 268 270 279 288 285 286 286 288 286 283 281 279 277 277 276 276 275
79 73 76 79 92 97 108 112 114 125 140 147 159 181 205 216 207 192 206 296 291 290 308 286 281 277 272 261 278 283 283 284 283 282 280 279 278 276
71 70 69 65 61 59 80 86 75 351 197 163 193 229 241 224 188 240 245 243 249 263 293 286 271 273 272 278 286 288 290 290 289 287 285 283 281 279
67 69 75 72 64 53 47 49 326 279 257 231 209 247 259 241 213 224 238 263 269 267 258 275 277 272 280 276 286 289 291 292 292 292 291 289 286 283
66 63 63 63 53 32 25 330 307 301 290 278 269 274 278 279 273 262 273 288 290 281 242 253 279 291 282 275 282 291 296 301 301 299 297 294 291 288
69 68 59 40 5 358 5 340 322 322 348 338 315 303 293 286 283 251 204 220 254 285 272 276 294 329 308 282 271 286 293 293 296 297 297 296 296 294
29 23 43 12 348 336 337 334 309 319 326 310 298 292 290 278 269 250 212 199 219 245 254 287 279 267 266 292 288 260 264 278 288 289 293 295 294 290
15 27 7 344 332 327 323 310 313 322 320 300 294 290 289 285 280 275 268 254 238 249 257 251 263 269 280 285 287 287 279 271 276 282 280 289 290 289
351 341 329 322 324 325 316 313 322 323 304 295 290 284 275 270 275 279 276 266 260 256 257 249 252 263 264 271 278 285 297 292 273 268 274 273 273 276
349 328 321 310 303 295 297 302 284 258 274 270 278 280 285 286 279 269 272 278 279 274 253 247 246 249 260 263 269 278 276 276 284 280 280 279 270 260
332 329 309 300 298 296 292 287 281 285 290 274 277 288 295 294 291 293 283 284 279 286 290 273 249 246 249 259 269 269 272 271 269 275 280 282 274 259
330 317 305 308 309 311 313 310 307 300 288 281 283 288 293 293 295 293 286 282 280 282 284 288 287 285 271 254 241 258 263 267 270 268 265 277 282 270
306 292 294 299 294 292 287 284 284 285 284 280 278 279 280 283 285 286 284 281 279 279 280 279 277 280 285 289 265 228 247 269 275 276 271 269 277 279
275 274 278 282 282 281 279 278 280 285 284 281 279 277 276 278 279 278 277 276 279 282 282 274 263 260 266 279 285 274 250 258 269 274 276 273 271 276
289 283 276 275 274 273 272 272 272 275 275 275 275 273 271 270 271 271 273 277 280 279 279 278 269 274 275 276 275 275 264 247 248 259 272 279 284 284
275 274 274 272 270 268 268 269 271 271 273 270 271 270 269 267 270 271 272 274 274 273 276 278 279 276 269 270 274 281 287 281 262 260 261 260 269 276
266 267 268 270 267 267 266 266 269 271 269 269 270 270 269 269 269 270 271 272 274 276 278 282 282 274 269 268 273 278 282 286 286 281 269 260 259 259